Theta_e
341 341 344 344 348 348 349 350 350 351 350 350 350 351 351 351 352 352 351 351 351 350 349 349 349 349 349 349 349 348 348 349 348 348 348 346 345 345 345 344 345 345 344 343 342 343 345 345 346 347 346 346 345 346 346 347 347 348 347 346 346 345 346 347 345 343 342 343 344 345 345 344 343 342 344 344 343 344 342 342 342 342 344 344 346
341 342 345 347 347 347 349 349 351 350 350 350 351 351 352 352 352 351 351 351 351 351 350 349 350 351 350 349 349 349 348 348 348 348 348 346 345 344 344 344 344 345 345 343 343 342 343 344 344 344 345 345 345 345 345 347 347 347 346 346 345 345 345 345 344 343 342 341 341 341 342 343 343 341 342 342 343 343 340 341 340 338 341 346 347
342 343 345 347 346 345 348 349 350 350 350 350 351 351 352 351 351 351 351 351 351 350 350 350 350 350 349 349 349 349 349 348 347 348 348 346 345 344 343 342 344 345 344 342 342 342 342 342 342 342 343 343 343 344 344 347 346 346 345 345 344 344 344 344 343 343 342 341 340 340 340 340 340 341 340 339 341 342 339 339 339 338 338 344 345
341 343 346 347 344 346 348 349 350 350 350 349 351 351 351 351 351 350 350 350 351 350 349 349 349 349 350 349 349 348 348 348 347 348 348 346 345 343 342 341 343 343 342 342 342 342 341 341 341 341 341 342 342 344 344 346 346 345 345 344 344 344 344 343 343 342 341 340 340 339 339 339 337 339 340 339 339 339 338 338 338 338 340 341 343
343 344 346 347 347 344 346 349 350 350 350 349 350 350 350 350 350 350 350 350 350 349 350 349 349 349 349 349 349 349 348 348 347 348 348 346 344 343 342 341 341 342 342 342 342 341 341 341 340 340 341 341 343 344 345 345 346 345 345 344 344 344 344 342 342 341 340 339 338 338 338 338 337 336 339 339 337 336 337 337 337 337 338 338 340
343 344 344 344 345 346 344 348 350 350 350 349 349 349 349 349 349 350 350 350 349 349 348 348 349 348 348 349 348 349 349 348 347 347 346 346 345 343 341 340 341 342 343 343 342 341 340 340 340 339 339 340 343 343 344 346 345 345 344 345 344 344 343 342 341 339 339 338 338 339 338 338 335 333 338 338 338 335 335 336 337 336 337 337 338
343 343 343 344 345 344 342 346 349 350 349 348 348 348 348 348 350 349 348 348 348 349 349 348 348 347 348 348 348 347 347 347 346 345 345 345 344 342 341 339 340 341 342 342 341 341 340 339 339 338 338 339 343 344 345 345 344 344 345 344 344 343 341 339 338 338 337 337 338 338 337 336 332 332 337 338 338 336 336 336 337 337 337 336 336
345 343 343 343 345 342 341 345 349 350 349 348 348 348 348 348 349 349 348 348 348 348 348 348 349 348 349 348 347 347 345 347 345 344 345 344 342 341 339 338 340 341 342 342 341 341 340 339 338 337 339 339 343 344 344 344 344 344 343 343 342 340 339 337 336 335 335 337 338 336 335 333 331 331 336 336 337 337 336 337 337 337 337 336 334
344 342 343 344 344 339 341 344 348 349 349 348 348 348 347 348 348 349 348 347 347 347 347 348 347 347 347 347 347 346 346 346 344 345 343 342 341 339 337 337 339 341 342 341 341 340 339 339 338 339 340 342 343 343 343 343 343 342 342 341 340 339 336 335 334 333 335 336 336 335 334 333 332 331 334 336 336 336 336 334 335 336 336 334 334
345 343 343 344 344 338 340 343 347 349 349 348 348 347 347 347 347 347 347 346 346 346 346 347 347 347 347 347 346 346 345 345 345 344 343 341 339 336 335 336 338 339 340 340 340 339 339 338 337 339 341 342 342 342 342 341 341 341 340 339 339 337 335 334 332 332 334 335 336 335 335 336 332 332 334 336 336 335 334 334 334 333 333 334 334
346 345 345 344 344 338 342 344 347 349 348 348 348 347 347 346 347 346 346 345 346 346 346 346 347 347 347 347 346 345 345 345 344 343 342 340 338 335 335 335 337 339 339 339 339 339 339 337 337 338 340 341 340 340 340 340 339 338 338 337 336 334 333 331 330 333 334 334 335 336 334 335 333 333 335 335 335 335 334 334 333 333 333 333 334
346 346 346 345 343 338 342 345 345 346 349 349 347 347 347 346 347 346 345 345 345 346 347 347 347 348 347 347 346 345 345 344 344 342 340 338 336 335 334 335 337 338 338 338 337 338 338 337 337 338 339 338 338 338 337 336 336 336 335 333 332 331 329 327 329 331 332 333 334 335 336 328 331 333 334 335 335 334 333 334 333 333 334 334 333
345 345 345 344 345 337 341 344 343 346 348 348 348 347 347 346 346 346 345 345 345 346 347 346 346 347 347 345 345 345 344 344 343 342 340 337 335 333 334 335 337 338 337 336 336 337 336 336 336 337 338 336 335 333 332 331 331 330 330 330 328 326 325 324 326 327 329 331 332 335 336 331 329 333 334 334 335 334 334 334 334 333 333 333 333
345 345 344 344 345 341 338 339 341 345 345 347 347 348 347 346 345 345 345 346 346 346 346 346 346 346 345 345 344 344 343 342 342 341 339 336 334 332 333 335 337 337 336 336 336 335 335 335 334 336 335 333 331 329 328 327 327 327 326 325 323 321 319 319 321 324 326 327 330 332 335 333 332 334 336 337 337 336 335 335 334 332 332 332 333
345 347 345 344 341 340 334 332 335 341 344 346 347 347 348 347 346 347 346 346 346 346 346 345 346 346 345 344 344 342 342 341 341 340 338 336 334 332 332 334 334 333 334 334 335 334 334 334 334 334 333 330 327 326 325 324 325 324 325 323 321 318 316 317 319 322 323 326 328 332 337 337 336 337 339 339 338 338 337 336 334 333 332 332 332
346 345 345 342 340 341 337 334 333 338 340 342 343 344 347 347 347 347 347 346 345 346 346 346 345 345 344 344 343 343 342 342 341 340 337 336 335 333 331 330 330 330 330 331 332 333 333 332 331 331 328 327 325 324 323 322 322 323 322 321 319 317 316 316 319 321 323 325 327 331 336 336 337 337 338 339 338 338 337 338 338 337 336 335 333
339 345 344 343 342 342 340 340 334 330 334 334 336 339 341 345 346 346 346 346 346 346 345 346 345 345 344 344 343 342 341 341 340 338 336 336 335 333 331 330 328 326 326 328 330 330 330 330 328 326 325 324 323 322 321 322 322 320 320 319 318 317 316 316 319 321 323 324 327 330 333 333 335 337 337 338 339 338 337 337 337 337 337 337 336
329 333 331 333 333 338 341 341 338 340 339 336 331 334 338 342 343 343 342 343 345 345 344 344 344 343 342 340 339 339 340 340 339 338 336 335 334 333 331 329 327 326 325 326 327 328 328 326 325 324 323 322 322 322 322 321 320 318 317 317 316 316 315 315 320 321 323 325 327 331 330 333 334 335 337 338 337 337 337 337 337 337 336 336 336
324 324 324 326 326 331 336 337 339 341 339 339 341 338 333 337 339 339 340 341 342 340 340 340 338 338 337 336 335 334 334 334 333 334 335 332 331 330 332 329 327 327 325 323 324 325 326 325 325 324 323 322 322 321 320 319 318 317 316 315 314 313 314 317 319 321 323 325 327 326 327 331 332 334 334 335 336 337 338 337 335 336 335 336 335
321 321 321 323 322 324 328 329 331 335 340 339 340 339 330 332 336 338 338 339 337 336 335 334 330 329 329 329 329 333 330 331 326 331 329 330 329 328 330 329 327 327 324 322 322 323 324 325 324 324 323 322 321 320 318 318 317 315 314 313 311 311 315 317 319 320 322 323 327 326 329 330 331 332 332 332 334 335 335 335 335 334 334 335 335
319 319 319 321 320 321 322 327 327 328 332 340 339 339 335 330 333 331 332 333 333 332 329 325 323 322 324 324 326 338 337 335 336 333 324 330 322 324 328 328 327 327 324 323 323 324 324 323 322 321 319 317 314 314 314 315 314 313 311 310 309 311 313 315 317 319 321 323 326 326 329 329 328 330 330 331 331 332 333 333 333 332 333 333 333
316 317 317 317 319 318 320 323 325 326 328 336 339 338 337 334 339 338 338 333 328 325 330 334 329 333 325 332 337 336 337 336 334 329 331 329 327 322 324 326 327 326 325 324 325 325 324 323 321 319 317 314 310 308 307 308 308 308 307 306 307 308 310 312 314 316 319 322 326 325 328 328 328 329 330 329 330 330 331 331 331 331 331 331 331
316 315 315 314 316 317 317 319 321 324 326 330 339 338 339 337 337 338 336 332 330 332 333 333 335 335 336 337 335 336 336 334 334 332 330 322 326 322 324 325 326 326 325 324 324 323 322 321 320 317 314 311 309 308 306 306 304 304 303 303 303 304 306 308 310 312 316 319 324 325 326 327 327 328 328 328 328 329 330 330 329 329 329 330 330
315 314 313 313 314 315 315 317 320 322 325 328 331 339 339 338 336 336 336 335 334 334 334 333 335 336 336 337 336 336 336 335 327 323 324 328 325 320 320 320 320 319 318 319 319 320 320 318 316 314 311 310 308 306 305 304 303 302 301 300 300 300 301 303 305 308 312 316 320 323 325 325 326 326 328 329 328 328 327 328 328 327 327 328 329
312 311 312 312 312 313 314 316 318 320 323 325 326 336 338 339 336 336 336 335 334 334 334 333 334 335 335 336 336 335 335 333 332 332 330 328 327 324 322 320 319 317 315 316 315 315 314 314 312 311 310 308 307 305 304 302 301 300 299 298 297 297 298 298 300 303 307 311 315 320 324 324 325 326 327 327 328 327 326 326 327 326 325 326 327
308 312 312 311 312 312 314 316 317 318 321 325 325 326 336 338 337 336 336 335 335 335 334 333 334 334 335 335 335 335 334 332 332 332 330 329 326 323 320 319 318 317 316 316 315 315 314 313 311 309 307 306 305 304 302 301 299 297 297 296 296 295 295 295 296 298 302 306 311 316 321 323 324 326 326 327 326 326 326 326 327 327 326 325 326
309 311 309 309 310 312 314 316 318 319 321 323 324 328 332 339 338 336 335 334 335 335 334 334 335 335 334 333 334 335 334 332 331 331 330 329 327 324 321 319 317 316 316 315 315 314 313 311 309 307 306 304 303 302 300 299 298 296 296 295 295 294 294 294 294 295 297 301 306 311 317 321 324 325 326 326 326 326 326 326 327 327 327 326 324
308 309 310 310 310 312 313 315 319 321 322 323 329 331 332 336 337 334 335 332 333 333 334 335 335 334 333 334 333 334 333 331 329 329 329 328 326 325 323 320 318 317 316 316 314 313 311 309 307 305 303 302 301 299 298 297 297 296 295 295 295 294 294 293 293 293 294 296 300 305 312 317 319 322 325 326 327 327 327 327 328 328 328 327 326
308 308 309 311 312 312 313 316 319 320 321 324 329 330 331 332 333 335 334 329 334 333 333 333 333 333 332 332 332 331 330 329 328 327 327 326 325 324 323 321 319 317 316 316 314 312 312 309 305 303 302 300 299 298 297 296 296 295 295 294 294 294 294 293 293 293 293 293 295 298 305 311 316 318 320 323 324 325 325 326 328 328 327 326 326
307 308 309 311 312 312 314 316 318 319 322 325 329 329 329 330 329 328 331 329 332 330 331 332 331 329 331 333 333 332 330 328 327 327 327 325 324 322 321 320 319 318 317 314 313 311 309 306 303 302 301 299 298 297 296 295 295 295 294 293 293 292 293 292 292 292 292 293 293 294 298 304 309 315 316 318 320 321 323 324 325 326 326 325 324
306 308 309 311 312 313 314 316 318 318 320 326 328 327 328 327 326 325 325 328 328 327 327 328 328 327 327 331 331 331 330 329 327 325 324 323 322 320 319 318 316 316 315 312 312 309 307 304 302 301 299 298 297 297 295 294 294 293 293 293 292 292 292 292 291 292 291 292 292 292 293 297 302 307 312 315 317 319 320 322 321 323 323 324 324
306 307 309 311 312 313 314 316 318 318 319 325 324 325 324 322 322 324 322 322 323 324 323 324 322 324 325 327 328 327 326 327 326 324 323 322 320 319 318 316 313 313 311 310 308 306 304 303 302 301 299 298 296 295 295 293 292 292 293 292 292 291 291 291 291 290 291 291 291 291 292 292 295 300 305 311 315 316 317 317 318 319 320 322 321
307 308 309 310 311 312 313 315 318 319 322 323 322 320 320 320 320 319 319 319 320 321 321 321 322 322 322 324 325 325 323 323 323 323 321 321 319 318 315 312 311 310 310 308 306 304 303 301 300 300 298 296 295 294 294 293 292 292 292 291 291 291 291 291 290 290 290 290 290 290 291 291 292 293 296 302 308 312 314 315 314 316 318 319 319
307 308 309 309 311 312 313 315 318 319 319 318 318 317 316 316 317 317 317 318 318 317 317 318 319 320 321 321 320 319 320 321 319 318 319 319 316 313 311 310 309 308 307 306 304 303 301 300 299 298 296 295 293 293 292 291 291 291 290 291 290 290 290 289 289 289 289 289 289 290 290 290 290 290 291 294 300 305 310 312 312 313 314 315 317
306 308 309 309 309 310 312 313 314 314 314 314 315 315 315 314 314 314 314 316 315 315 315 315 316 317 317 316 317 316 317 318 318 317 315 315 313 311 308 308 308 308 306 305 304 303 301 299 298 295 295 294 292 292 291 290 290 290 290 290 289 289 289 289 289 289 288 289 289 289 289 289 289 290 290 290 292 298 303 307 310 311 311 312 313
306 308 309 309 309 310 311 313 313 312 312 311 311 311 311 310 310 310 312 312 312 311 312 312 312 313 313 313 314 313 315 316 316 315 313 311 309 306 305 305 305 305 305 304 302 300 299 298 297 296 293 292 291 290 291 290 290 289 289 289 289 289 288 288 288 288 288 288 288 288 288 288 289 288 289 289 289 292 298 300 304 306 308 308 310
306 306 307 308 308 309 310 311 311 310 309 308 308 308 308 308 306 307 307 308 308 309 308 309 310 311 311 311 311 311 312 312 311 311 309 307 304 303 303 303 303 303 303 302 301 300 298 297 296 296 294 291 290 290 290 290 289 288 289 288 288 288 287 288 288 288 289 288 287 287 287 287 288 287 287 287 288 289 291 295 297 300 302 304 306
305 306 307 308 308 308 308 308 308 308 307 306 305 306 306 306 305 305 305 304 304 306 305 306 307 308 309 308 308 309 309 308 307 307 306 304 303 302 301 301 301 301 300 300 299 299 298 297 295 294 293 291 290 290 289 289 289 289 288 288 288 287 287 287 287 288 287 287 287 286 286 286 287 287 287 287 288 288 288 289 291 292 295 299 302
306 306 307 307 306 306 306 306 306 306 304 304 304 304 304 304 304 303 303 302 301 302 304 302 304 305 305 305 306 306 306 305 304 303 303 302 300 299 299 299 301 300 300 298 297 297 297 296 294 293 294 293 291 290 289 289 289 288 287 287 287 287 287 287 287 287 286 287 287 287 287 286 286 286 286 287 287 287 287 288 288 288 288 294 298
306 305 306 306 305 305 305 305 305 304 303 303 303 303 304 303 301 302 301 301 301 301 301 302 303 302 302 302 304 304 304 303 303 302 301 300 299 298 297 297 298 299 298 297 296 296 295 294 294 293 291 291 291 290 290 289 289 288 288 288 288 288 287 287 287 286 286 286 286 286 285 286 285 285 285 286 286 287 287 287 287 287 287 288 292
305 305 305 305 305 304 304 304 303 303 302 303 303 303 302 302 303 302 301 299 299 299 298 299 299 299 300 300 300 301 302 301 300 300 298 298 297 297 297 298 297 298 298 298 297 296 296 295 293 293 291 289 289 290 290 291 288 286 289 289 288 289 288 287 286 286 285 285 286 285 286 285 285 285 285 286 286 286 286 286 286 286 286 286 286
305 305 304 305 305 304 306 304 302 302 303 304 304 305 305 305 305 300 298 297 296 297 296 297 296 296 296 297 298 299 300 299 298 297 296 296 295 295 296 296 297 296 297 297 296 295 295 294 293 290 292 290 289 290 290 292 290 287 286 286 288 290 291 288 287 286 286 285 285 285 285 285 284 284 285 285 285 285 285 285 286 285 285 285 285
305 305 305 305 304 304 305 303 303 303 303 303 303 301 300 301 301 297 296 294 293 293 293 293 294 294 294 294 296 297 297 296 296 295 294 295 294 294 293 294 294 295 295 295 295 294 294 293 293 291 289 289 288 288 289 289 290 289 290 288 286 287 288 288 289 287 286 285 285 285 284 284 284 284 285 285 285 284 284 285 284 284 284 284 284
304 304 304 304 304 304 303 302 302 302 302 301 298 296 295 295 295 294 293 293 292 293 292 292 293 294 292 292 293 295 295 295 295 294 294 293 293 292 293 294 294 295 295 294 294 293 294 294 293 292 291 289 289 288 287 286 291 290 288 290 287 289 284 283 285 286 286 285 284 284 284 283 284 285 285 284 284 284 284 284 283 283 283 283 283
304 304 304 304 304 304 304 303 302 302 301 297 295 295 293 292 292 292 293 292 293 292 293 291 291 291 291 292 291 292 293 293 293 293 291 291 292 292 292 292 293 293 294 294 293 293 294 294 293 292 293 291 287 286 286 286 287 285 292 287 287 287 287 285 285 284 286 286 285 284 285 283 284 284 283 283 283 284 283 283 283 283 283 283 283
304 304 305 304 304 303 302 302 302 301 297 295 295 295 295 295 292 295 294 294 291 293 294 293 290 292 290 290 290 291 291 292 291 291 291 290 290 291 291 291 291 291 293 292 291 290 291 292 293 294 292 293 290 286 285 284 284 285 285 286 288 287 285 284 285 283 284 285 284 284 283 283 283 283 283 283 283 283 283 283 283 282 282 282 282
304 304 304 304 304 302 302 302 301 299 296 295 295 295 295 296 300 301 301 300 298 295 293 293 292 289 289 288 288 289 290 290 289 289 289 289 288 289 290 290 290 289 289 289 289 290 290 290 288 291 291 289 290 288 286 284 285 284 284 284 284 283 288 286 283 283 281 283 285 285 284 284 284 284 283 283 283 283 283 283 282 282 282 282 282
303 303 303 303 303 302 301 302 300 298 296 295 295 296 295 296 297 299 300 301 300 297 291 289 289 288 288 287 288 287 288 288 288 287 288 287 287 287 288 288 288 288 288 289 288 287 287 287 287 288 288 289 291 287 285 285 286 283 284 284 283 284 284 285 287 286 285 281 282 284 284 284 284 283 283 282 282 282 282 282 282 282 281 281 281
302 302 302 302 303 302 301 300 298 297 295 295 295 296 297 297 298 298 297 292 291 290 289 289 288 288 287 287 287 286 286 286 286 286 287 287 287 287 287 287 287 287 287 287 286 286 287 286 286 287 287 286 288 287 286 285 285 283 283 282 284 283 283 283 283 286 284 283 282 283 283 284 283 283 282 283 282 282 282 282 281 281 281 280 280
303 302 302 302 302 301 299 298 297 296 295 294 295 295 296 297 296 296 294 290 289 287 288 287 287 287 286 286 286 286 286 286 285 286 286 286 286 286 287 287 286 286 286 286 285 286 286 287 287 286 286 286 285 286 286 284 285 284 285 285 284 283 285 285 284 283 283 284 282 282 282 281 281 282 283 283 282 281 281 281 280 280 280 280 280
302 301 300 301 301 300 299 299 297 295 295 294 295 295 296 296 296 294 292 290 290 287 286 286 286 286 286 285 286 285 285 285 285 285 285 285 285 285 286 286 286 286 285 285 285 285 285 285 285 285 285 285 284 285 284 284 284 284 283 284 285 286 285 282 283 283 283 281 280 280 280 281 281 281 282 282 282 281 280 280 280 280 280 280 280
Wind_Speed
5 5 4 4 3 1 3 6 9 9 10 11 11 12 12 12 12 12 12 13 14 14 14 14 14 15 15 16 16 16 16 16 16 16 16 16 17 17 17 18 18 18 18 18 18 17 16 16 16 16 17 16 17 17 17 16 17 18 19 20 20 20 20 19 20 20 19 20 20 22 22 23 23 22 23 23 23 22 21 21 18 13 13 15 19
5 6 5 3 4 1 3 7 9 9 10 10 11 11 11 11 11 11 11 12 13 12 12 14 14 15 15 16 16 15 15 16 16 16 16 17 17 18 18 19 19 19 19 19 18 18 17 16 16 16 16 16 16 16 16 16 17 18 20 20 20 20 19 19 19 20 19 18 18 17 19 23 23 22 22 23 23 22 21 22 21 14 12 20 21
3 5 4 3 4 2 2 5 9 9 9 10 11 11 12 11 11 11 12 12 12 11 11 12 13 13 15 15 15 15 15 16 16 16 17 17 17 18 19 19 19 18 18 19 19 18 18 17 16 16 16 15 15 15 16 16 17 19 20 20 20 19 19 19 19 18 17 16 16 13 13 19 22 23 22 21 22 22 21 22 22 18 15 21 20
5 5 4 3 4 2 2 1 9 10 10 10 11 11 11 11 11 12 12 12 12 12 11 12 12 13 14 14 14 15 15 16 16 17 17 17 18 18 18 18 18 18 18 18 19 18 18 18 16 16 16 15 15 15 15 17 17 19 20 20 20 20 20 19 18 18 16 15 14 13 12 12 16 22 23 21 21 23 20 22 22 22 22 20 22
6 4 3 2 2 3 1 3 9 10 10 10 11 11 11 11 12 12 12 12 12 12 11 12 12 13 13 14 14 14 15 16 16 17 17 17 18 18 18 18 18 18 18 19 19 19 18 18 17 16 16 16 15 15 15 17 19 20 20 19 19 20 19 17 16 16 15 15 14 13 12 13 12 20 21 22 21 20 20 22 22 22 22 22 21
6 4 2 1 1 2 4 4 7 10 9 9 10 11 11 10 12 12 13 12 13 13 13 13 13 14 13 13 14 14 16 16 16 17 17 17 17 17 17 17 18 18 18 18 19 18 19 18 18 17 16 16 16 16 17 18 19 20 19 19 20 18 17 16 15 15 13 10 11 11 11 12 12 12 21 22 21 20 20 23 23 22 22 22 20
6 4 3 2 1 1 3 2 6 9 9 8 9 10 10 10 10 12 12 12 12 12 13 13 13 13 13 13 14 15 16 16 16 16 16 16 17 17 17 17 17 17 18 18 18 18 18 18 18 17 17 16 17 16 18 19 19 20 20 19 18 17 16 16 14 14 11 11 10 10 10 12 12 10 21 21 20 21 21 22 23 23 21 21 21
5 5 4 4 2 1 1 3 5 8 8 8 9 9 10 9 7 9 12 12 11 12 12 12 13 13 13 13 14 16 15 16 16 16 15 16 17 17 17 16 17 18 18 18 18 18 18 19 19 18 17 17 17 19 19 20 20 20 18 18 17 17 16 15 14 12 10 8 10 10 10 12 13 11 20 21 22 22 21 21 21 23 23 22 17
7 5 6 4 4 3 1 1 3 8 9 9 9 9 10 9 8 9 11 12 11 11 12 12 12 13 13 13 14 15 15 16 16 15 15 16 17 16 16 16 17 17 18 18 19 18 19 18 19 18 18 18 19 20 20 20 19 19 19 18 17 17 16 15 14 10 7 8 9 11 13 12 13 13 18 21 21 23 23 20 19 22 24 22 20
7 6 7 6 5 6 3 1 4 9 9 9 9 10 11 11 9 9 11 11 11 11 11 11 12 12 13 13 15 14 15 15 15 15 15 16 16 16 16 16 17 17 18 19 18 19 19 18 19 19 19 19 19 20 19 20 20 19 19 17 17 17 16 15 12 9 7 8 9 12 12 11 13 13 18 20 21 23 20 17 15 16 17 21 23
7 6 6 6 6 6 5 4 2 6 10 9 9 10 11 10 9 10 11 11 11 10 11 11 11 12 13 13 14 14 15 14 14 15 15 15 15 16 16 16 17 17 17 18 19 19 19 19 19 18 19 19 20 20 20 20 20 19 17 17 17 17 16 14 10 7 8 9 9 8 9 13 13 12 18 20 21 21 18 20 18 18 22 23 23
8 7 6 5 5 6 5 4 4 4 7 7 9 10 11 9 8 9 10 11 11 10 10 11 12 12 13 13 14 14 14 14 14 14 15 15 15 16 16 17 17 17 18 18 19 19 19 19 19 19 20 20 20 21 20 19 18 18 17 17 17 16 15 14 8 7 8 8 8 7 8 13 15 14 20 20 21 21 20 21 21 22 22 22 22
6 6 6 5 5 5 4 3 2 2 4 6 7 9 10 10 9 8 9 10 10 10 10 10 11 12 12 12 13 13 13 14 14 14 14 15 16 16 16 17 17 17 17 18 19 19 19 19 19 20 21 21 20 19 19 18 18 18 17 17 16 16 15 14 7 8 7 8 7 7 6 11 13 17 18 19 19 19 20 20 21 22 22 22 22
8 5 6 6 5 4 5 2 1 2 3 3 7 6 8 9 10 8 9 10 10 9 9 10 11 11 11 12 13 12 13 14 14 14 14 15 16 16 17 17 17 18 18 18 18 19 19 19 20 20 20 19 19 19 19 19 18 18 18 17 16 16 13 9 9 7 8 8 7 7 6 10 11 16 17 18 18 18 19 19 19 21 21 20 21
8 7 5 7 4 5 4 4 4 3 4 5 5 5 7 7 8 8 9 10 10 9 9 10 11 11 11 12 12 12 13 13 14 14 15 15 16 17 17 17 17 18 18 18 18 18 18 19 19 19 19 19 19 19 19 19 19 18 18 17 16 15 12 7 6 7 7 7 7 7 7 8 16 19 19 17 18 18 18 18 19 19 19 19 19
6 6 5 6 5 5 6 4 7 4 3 4 2 3 6 6 6 8 9 8 9 9 9 9 10 10 11 12 13 13 13 14 14 15 15 15 16 17 17 17 17 17 17 17 17 18 18 18 19 18 19 19 19 19 19 19 19 17 17 16 16 15 13 7 6 7 7 7 7 6 9 13 19 20 20 21 20 17 18 20 21 21 21 20 19
5 4 4 4 8 7 5 5 4 6 5 5 2 2 4 6 6 7 8 8 9 9 8 8 9 9 11 10 11 11 12 13 14 15 15 15 16 16 17 17 18 17 17 17 17 18 18 18 19 19 19 19 19 19 19 19 18 18 17 17 16 15 13 9 7 7 7 8 6 5 9 10 15 20 21 22 23 21 20 19 21 21 21 21 21
6 6 5 4 5 3 6 6 6 3 4 8 3 3 3 5 6 7 8 8 9 8 7 7 8 9 10 11 11 10 12 12 13 14 15 14 16 16 17 17 17 17 17 18 18 18 18 19 19 19 19 19 19 19 19 18 18 18 17 16 16 15 12 11 7 7 7 6 8 8 11 14 18 20 21 21 21 23 22 22 23 23 22 21 20
5 5 4 5 5 3 5 5 5 7 4 1 2 3 2 4 7 7 8 8 8 8 8 8 8 9 10 11 10 11 12 12 12 12 12 14 13 13 14 16 17 17 17 18 18 18 18 19 19 19 19 20 19 19 19 18 17 17 17 16 15 13 11 9 7 7 7 7 7 10 11 14 18 21 20 20 20 21 22 22 22 22 22 21 21
4 4 4 5 3 2 4 1 5 2 6 6 4 4 2 3 6 8 8 9 9 9 9 9 9 9 10 11 11 11 11 11 12 11 11 14 13 11 13 15 16 17 18 18 19 19 19 19 19 19 19 19 19 18 18 18 18 17 17 16 13 11 9 7 9 8 7 7 6 10 12 15 18 19 19 20 20 21 21 23 23 22 21 21 22
2 4 4 3 3 3 3 2 3 3 1 6 6 5 3 4 5 6 9 10 9 9 10 10 9 8 9 9 10 8 6 6 8 7 10 11 11 12 13 15 16 16 17 18 18 19 19 20 20 20 19 19 18 19 19 18 18 18 17 15 12 9 7 8 8 7 7 7 6 12 15 15 17 19 19 19 20 21 21 20 21 21 20 20 21
3 3 3 3 3 3 3 3 2 4 2 2 5 4 4 3 5 5 5 8 8 8 7 7 7 6 8 7 6 6 5 5 6 7 7 10 10 12 13 13 15 16 16 18 18 18 19 19 19 19 18 17 14 9 10 14 18 17 15 12 10 7 8 8 8 8 8 8 7 12 16 18 18 19 20 20 20 21 22 22 22 21 20 20 20
3 2 1 2 2 2 2 2 3 2 2 1 4 5 5 4 5 5 5 8 7 7 7 6 6 7 6 6 6 5 6 5 5 5 6 12 11 11 13 14 15 15 16 17 18 18 18 18 18 17 17 14 8 8 8 7 8 12 12 10 8 8 8 9 8 8 8 9 8 14 16 18 19 20 20 20 21 20 21 22 22 22 21 21 21
4 2 2 0 0 1 1 2 2 2 2 1 2 6 5 5 5 5 5 6 7 7 7 6 6 7 7 5 5 5 6 5 7 12 9 8 9 11 13 15 15 15 15 12 14 16 17 17 16 14 10 6 7 7 7 7 7 7 8 8 8 8 8 8 7 7 8 10 10 18 17 20 20 20 20 20 20 20 21 21 22 21 22 22 22
2 2 2 1 1 0 2 1 0 1 1 0 0 5 7 6 5 6 6 6 5 7 6 7 7 6 7 6 5 6 6 5 6 6 5 6 6 7 6 6 7 9 12 8 8 7 8 7 8 8 7 7 8 8 7 7 8 8 8 8 8 8 8 8 7 8 8 9 12 19 15 19 20 20 20 20 20 21 21 21 21 22 22 20 22
1 1 1 1 2 1 1 1 1 2 1 0 1 2 4 5 6 6 6 7 6 6 6 6 6 7 6 6 6 6 6 6 6 7 6 6 6 6 6 6 7 7 7 8 7 7 7 7 8 8 8 8 8 8 8 7 8 8 8 8 8 8 8 8 8 8 8 9 12 20 19 17 20 21 20 19 20 20 20 21 21 21 21 21 22
2 1 1 2 3 1 2 1 2 1 1 2 1 2 3 6 5 7 7 6 5 7 7 7 7 7 7 7 6 6 6 5 6 7 8 7 5 6 6 6 7 6 5 8 8 7 7 7 8 8 8 9 9 8 8 9 9 10 9 9 8 9 8 8 8 8 8 9 11 23 20 21 23 22 22 21 20 20 20 20 22 22 22 22 22
1 1 0 1 2 3 3 3 2 1 2 1 2 2 2 3 7 7 7 6 6 7 7 7 8 7 7 7 6 8 6 6 5 5 8 5 6 5 6 7 7 6 5 6 8 7 8 7 8 8 9 9 9 8 8 9 9 9 10 9 9 8 8 8 8 9 8 8 10 18 22 21 22 23 22 23 22 21 21 22 22 22 23 23 23
4 1 1 2 2 3 3 2 1 3 3 2 3 2 2 2 4 7 7 7 6 5 6 6 7 6 6 7 6 6 6 6 6 6 6 7 7 5 5 6 7 6 6 6 7 8 7 6 7 8 8 8 7 8 8 9 9 9 9 9 9 9 8 8 8 9 8 8 9 14 22 22 22 22 22 22 23 22 21 22 24 23 22 22 22
4 2 1 1 2 2 1 3 4 3 3 4 4 3 4 4 3 2 5 8 7 6 7 6 7 5 6 8 9 7 7 7 6 5 8 9 8 7 5 6 6 6 5 7 7 9 8 7 8 7 8 9 9 6 8 9 9 9 8 9 8 8 8 8 8 8 8 8 8 10 20 21 21 22 23 22 24 23 24 24 24 25 24 23 23
3 3 2 1 1 2 2 3 4 6 5 5 5 3 4 3 4 4 2 5 7 6 5 5 5 5 4 9 9 7 8 7 7 8 7 8 8 8 7 5 6 6 7 8 6 8 7 8 7 7 8 9 8 5 8 9 8 9 8 9 7 8 8 8 8 8 9 8 7 8 11 20 22 22 22 23 23 23 24 23 24 23 24 24 23
5 4 3 1 1 3 3 5 6 6 6 6 4 4 4 3 4 4 4 1 5 6 5 6 5 5 5 5 8 8 6 7 9 9 8 7 8 8 7 7 7 6 7 7 7 7 9 9 9 9 9 9 8 7 7 9 9 8 8 9 8 8 8 7 8 8 8 8 7 8 8 9 18 22 22 23 23 24 23 24 23 23 22 23 23
3 4 2 1 3 1 2 3 6 7 7 6 5 4 5 4 4 4 4 3 3 6 6 5 6 5 5 6 7 9 6 7 6 9 9 9 9 8 7 5 7 7 8 10 8 9 9 9 10 9 9 8 9 8 7 9 9 7 8 7 7 8 7 7 7 8 8 8 7 7 7 8 9 15 20 21 23 23 23 24 23 24 24 23 23
4 3 2 2 1 1 1 1 3 5 5 4 4 4 6 3 5 5 4 4 4 5 5 4 5 6 6 7 6 6 7 7 8 6 7 9 9 9 8 6 5 7 7 7 8 8 9 10 9 9 8 7 8 6 8 9 7 7 7 6 7 6 6 8 8 7 7 8 7 7 7 7 8 8 8 16 21 22 23 23 23 24 24 24 24
3 3 4 3 2 1 1 2 3 4 4 4 3 5 7 5 4 5 3 3 4 6 4 5 4 5 6 6 7 7 6 7 8 9 7 7 7 9 6 5 5 6 7 5 8 8 8 9 9 10 8 7 7 7 9 8 7 8 6 6 7 6 7 7 7 7 8 7 7 8 8 7 7 7 7 7 11 20 21 22 22 23 24 24 24
5 4 3 3 2 2 2 5 4 6 5 4 4 3 7 5 2 4 5 4 4 6 4 5 5 3 5 6 6 8 8 8 7 8 8 7 8 7 6 5 6 6 6 7 9 7 8 9 7 10 11 7 8 8 7 8 7 8 6 6 6 6 7 6 7 8 6 7 8 8 8 8 8 7 7 7 7 11 21 21 22 22 23 23 23
5 4 4 3 3 3 3 5 7 6 6 6 5 4 6 6 3 3 5 6 3 4 5 3 5 3 4 5 5 7 8 8 7 5 8 7 7 7 6 6 5 6 9 8 5 6 9 9 7 5 10 9 9 10 8 7 7 7 7 7 6 6 7 6 7 6 5 8 8 8 8 8 7 7 7 7 7 7 13 20 20 21 22 22 23
5 5 5 5 5 4 3 4 5 5 5 5 5 5 5 6 3 3 5 6 3 3 5 3 5 3 5 6 4 6 6 7 6 6 7 7 7 7 6 6 8 8 8 8 6 4 6 9 10 6 7 9 8 9 9 8 6 7 7 8 6 7 6 6 6 6 7 8 8 8 7 6 7 7 7 7 7 7 7 11 15 17 21 22 23
5 6 5 4 5 4 4 5 6 7 6 6 6 6 6 6 4 3 6 6 4 4 6 4 4 4 4 5 5 5 7 7 7 7 8 8 8 7 7 6 7 9 10 8 6 7 7 7 12 9 6 6 8 8 9 8 7 7 7 7 7 7 6 6 6 7 7 7 7 6 5 7 7 8 8 8 7 8 8 8 7 7 10 21 21
6 6 7 6 6 6 6 6 5 6 6 6 5 5 5 6 7 5 6 5 4 4 4 4 3 4 4 4 3 4 7 7 6 8 8 7 8 8 8 6 6 7 9 10 7 8 11 12 10 12 11 9 7 7 7 9 9 9 8 7 7 6 8 6 7 7 6 7 6 5 6 6 7 7 8 7 7 7 8 7 7 7 7 12 20
8 8 8 8 8 7 9 9 6 7 7 8 6 7 7 5 3 5 6 3 4 4 5 3 4 4 5 5 4 2 5 8 6 7 7 8 7 7 6 7 6 5 7 8 9 9 8 10 10 8 12 11 7 4 3 3 10 8 6 7 6 6 6 6 7 7 6 5 4 6 5 6 6 7 6 6 7 7 7 7 6 6 7 6 9
11 10 10 10 9 9 10 9 8 8 5 7 7 6 5 5 6 5 6 4 4 4 5 3 4 4 5 5 4 3 4 6 7 8 6 7 8 6 7 7 7 6 6 7 8 9 10 10 10 10 3 7 6 2 1 0 4 6 7 4 5 3 3 4 6 6 5 5 5 6 6 6 6 5 5 6 7 7 7 6 6 6 6 7 7
12 11 9 10 10 9 8 9 8 9 6 6 6 5 2 4 5 5 5 5 4 3 4 3 4 5 4 4 4 2 3 6 8 7 7 6 7 7 7 6 6 7 9 9 9 10 9 11 9 11 8 3 4 2 2 3 3 3 3 6 3 3 1 2 2 4 4 5 4 6 5 6 6 5 4 5 6 6 5 6 6 7 7 7 7
11 11 11 11 9 9 9 9 9 7 7 5 5 5 6 8 8 7 6 5 5 4 5 4 5 6 5 4 4 2 2 7 7 6 5 6 6 6 7 7 7 5 9 11 10 10 9 8 7 7 10 9 2 2 4 2 1 6 4 1 2 2 4 1 1 2 1 3 6 5 4 4 4 5 5 6 5 5 5 5 7 6 6 7 6
12 13 13 11 7 11 11 11 9 8 7 6 7 8 8 8 7 8 8 9 7 5 5 4 3 4 5 4 3 2 1 7 7 6 7 8 6 6 7 7 7 7 7 9 9 9 8 7 8 9 7 10 5 2 3 3 3 3 2 4 3 2 1 3 3 2 3 1 4 3 4 4 5 5 5 5 4 4 4 5 5 5 6 6 7
13 11 12 9 10 10 10 9 9 6 5 6 8 8 9 12 7 9 8 7 7 6 8 10 6 5 5 3 4 2 1 8 6 7 8 6 7 7 8 8 9 6 6 7 7 7 7 8 6 6 7 2 8 5 4 3 4 5 4 2 1 0 6 3 2 3 1 0 2 1 4 4 3 4 4 4 4 4 3 4 5 6 6 6 6
13 11 11 11 12 10 10 10 9 7 7 7 8 6 7 8 13 13 13 13 11 5 3 5 5 4 4 5 3 2 3 8 7 6 6 7 8 7 8 8 7 7 6 7 7 7 6 7 4 4 4 7 6 6 6 5 4 6 4 4 5 3 2 6 3 4 4 1 1 1 4 3 2 4 4 4 4 4 4 4 5 5 6 6 7
11 11 12 11 14 13 13 12 9 8 8 8 8 7 8 9 7 7 8 10 10 12 8 6 5 4 6 4 3 3 5 6 6 6 5 6 6 6 7 7 8 7 7 6 7 6 5 4 4 5 5 4 6 9 7 4 4 3 1 3 5 5 5 6 4 3 3 6 3 1 2 4 3 4 4 4 4 4 4 4 4 5 5 6 6
13 14 13 10 11 11 11 10 8 8 8 11 10 7 7 10 7 7 8 3 6 6 6 5 6 5 8 4 3 3 5 6 6 6 5 6 5 7 8 8 8 7 6 6 6 6 8 8 7 6 7 4 4 7 8 5 6 6 5 3 4 5 4 4 3 3 3 3 2 1 1 2 1 2 4 3 3 3 3 4 4 4 4 5 6
13 11 11 11 10 10 12 12 10 8 9 10 8 8 7 6 6 7 10 9 7 6 5 6 6 4 6 5 3 3 4 5 5 4 6 5 7 7 8 10 9 8 6 8 8 8 8 9 9 7 7 8 4 6 7 6 5 5 2 5 4 2 4 3 4 4 4 3 2 3 2 1 2 1 1 3 4 3 3 3 3 4 4 4 5
10 12 10 11 12 12 13 15 12 7 9 9 9 9 8 6 6 9 11 13 12 10 8 6 5 5 6 5 5 4 4 5 5 4 4 6 6 6 7 8 7 7 8 8 8 8 7 7 7 8 9 9 7 7 7 5 5 4 4 4 6 5 5 4 5 2 3 2 3 2 2 3 2 1 2 2 2 3 3 2 3 3 4 5 5
Wind_Direction
231 223 217 239 179 203 130 118 107 108 107 106 105 103 101 100 96 96 97 99 100 99 99 100 101 101 98 94 91 86 81 76 73 70 65 63 61 61 60 59 59 59 58 57 57 59 61 68 69 66 65 69 71 72 74 74 73 72 70 68 63 60 58 55 54 53 50 48 46 44 45 48 46 45 43 45 43 39 36 34 29 30 27 33 35
177 217 213 209 130 4 138 133 114 111 110 106 105 105 103 101 101 99 97 95 97 98 99 102 102 100 98 96 95 92 86 80 75 70 66 62 60 60 60 59 59 58 58 58 58 58 61 67 71 69 69 70 71 73 76 77 78 78 75 70 67 63 60 58 56 54 52 51 50 46 46 47 47 47 46 44 43 42 41 39 37 34 33 27 34
238 189 204 194 131 122 6 132 121 116 107 104 106 107 105 103 105 105 104 103 101 102 99 100 100 99 97 95 92 89 85 81 74 68 65 63 60 58 59 59 59 60 60 60 60 59 60 66 74 74 72 72 73 76 78 80 80 80 78 74 71 68 63 57 55 52 50 48 46 40 39 49 47 49 48 45 45 45 44 44 43 40 38 34 34
190 181 193 157 124 138 57 55 123 116 107 109 110 109 107 108 107 104 103 104 106 105 105 103 99 96 94 92 90 87 83 78 72 67 64 62 60 59 59 59 60 60 61 62 61 61 62 66 73 76 74 74 78 81 81 82 85 82 78 76 73 70 65 58 54 52 49 46 41 43 51 49 48 47 50 49 47 47 47 46 45 43 40 39 38
162 174 177 143 132 129 88 41 128 118 120 119 117 114 114 114 109 108 109 107 105 104 105 101 99 98 95 92 90 88 83 76 71 67 62 60 59 59 58 59 60 60 61 63 64 63 65 68 73 77 75 76 81 83 82 83 81 81 79 76 74 69 65 60 55 54 52 50 47 51 52 51 51 49 51 52 50 48 48 47 45 45 42 39 41
154 159 154 86 67 44 28 21 130 121 119 124 120 118 114 106 108 108 110 110 111 115 113 111 109 104 101 99 96 90 83 78 73 69 65 60 59 58 59 59 61 62 63 65 67 67 67 70 73 76 77 80 82 82 81 82 81 78 76 72 69 67 63 59 57 56 54 45 47 57 53 50 50 50 52 53 52 49 49 48 46 44 42 40 40
151 153 154 166 105 51 23 7 131 119 115 122 120 115 113 108 111 109 105 107 107 108 109 108 107 104 104 100 94 89 86 83 76 70 65 62 60 58 59 61 62 64 65 67 69 70 69 70 72 76 80 81 81 79 77 80 79 77 74 72 68 64 63 62 57 53 47 58 57 52 55 52 53 55 54 54 52 51 50 50 49 46 44 44 42
145 165 173 171 127 119 80 347 134 125 124 124 117 111 109 101 94 103 106 101 98 101 103 105 103 104 101 97 91 83 84 85 80 73 68 66 63 60 58 60 63 66 67 69 71 70 70 72 75 78 81 81 78 81 80 75 73 74 73 72 67 63 59 53 49 47 38 48 50 53 55 55 56 57 54 54 53 51 50 49 50 49 47 45 45
159 175 168 175 159 145 184 310 165 140 137 134 130 121 114 98 87 89 100 101 97 98 100 99 99 99 100 99 94 95 90 84 80 75 71 67 65 63 62 61 63 66 69 70 71 71 72 74 77 79 79 77 77 76 74 74 76 77 77 71 64 60 55 50 45 34 44 44 46 60 56 56 57 57 56 55 54 53 51 50 51 50 49 48 46
164 173 175 175 161 180 175 223 172 149 141 142 138 130 118 113 109 108 110 106 102 97 97 99 101 102 101 99 95 94 90 85 79 75 72 70 69 68 66 67 66 67 70 72 72 73 73 74 78 79 75 73 73 72 73 74 75 76 71 62 60 58 55 51 43 37 41 45 48 57 56 54 60 56 55 56 55 53 54 54 52 54 50 51 50
163 162 178 178 161 173 175 184 180 166 149 150 145 129 122 118 121 120 115 110 109 104 102 102 103 103 101 99 98 97 91 86 81 77 75 74 73 72 71 70 70 70 70 72 73 73 75 75 76 75 73 73 74 73 71 70 68 65 64 61 57 55 53 47 41 42 37 35 35 38 49 59 63 60 54 56 55 55 58 54 51 54 52 49 51
158 162 165 185 155 174 187 175 156 155 148 154 142 135 126 121 119 124 121 115 109 105 100 99 101 101 102 102 101 97 94 91 86 80 78 77 76 74 74 73 72 73 73 73 73 73 75 77 78 78 77 75 69 66 67 66 65 64 62 59 57 55 51 46 44 41 35 33 33 25 27 55 62 63 56 58 55 54 56 54 50 51 52 49 50
199 137 159 169 173 189 203 152 173 164 146 152 140 138 127 126 122 118 120 115 109 105 103 103 103 104 105 104 104 103 102 96 89 83 80 78 77 77 76 75 76 75 74 74 74 74 75 76 76 76 71 68 69 69 67 65 63 61 58 57 55 52 52 43 40 37 33 27 27 23 26 56 59 61 58 55 58 56 54 59 53 51 52 52 50
182 136 158 160 189 173 183 132 257 192 125 150 145 139 129 130 127 128 118 108 111 109 109 110 111 111 111 111 111 110 105 99 91 87 83 81 79 79 78 78 78 76 75 75 75 75 77 79 78 77 72 71 69 67 65 63 61 59 57 55 53 51 46 45 37 35 31 26 25 16 7 58 58 58 57 56 56 55 58 61 59 55 52 52 52
154 157 151 153 124 127 151 202 261 254 157 171 166 146 138 137 133 127 125 122 123 120 116 117 119 119 120 118 116 112 106 102 95 89 85 83 83 82 81 82 81 80 79 78 78 79 80 80 79 77 75 72 70 68 66 63 61 59 58 56 56 52 45 50 38 34 28 23 23 19 25 44 53 53 51 57 56 55 57 58 60 58 56 54 57
146 172 149 144 139 146 183 208 229 277 159 128 127 146 144 141 137 129 128 128 129 123 122 122 121 122 121 119 117 114 110 104 97 92 88 87 86 84 84 84 84 83 82 83 83 83 82 83 83 80 76 75 72 70 68 66 64 60 59 56 56 55 47 44 46 32 30 23 15 16 48 57 51 55 60 58 55 57 60 53 47 54 53 55 57
83 127 194 133 160 174 146 188 83 9 125 66 62 98 141 149 145 130 129 125 122 124 125 123 122 121 118 116 113 114 114 107 98 95 93 90 88 86 86 86 84 84 84 85 86 86 86 86 84 81 79 78 76 74 72 68 64 62 59 58 56 54 47 39 46 36 30 21 15 16 49 52 53 54 56 59 57 61 65 60 58 57 57 57 56
63 79 68 50 52 100 151 173 147 201 147 155 110 41 175 164 143 131 126 126 127 124 122 120 116 109 109 113 116 112 109 102 99 96 94 91 89 88 88 88 87 86 85 85 86 87 87 86 84 83 82 80 79 76 71 67 65 63 61 58 57 52 48 49 45 37 30 19 27 30 53 48 49 48 46 48 53 56 60 60 56 55 55 55 56
58 65 55 38 38 45 90 122 150 171 124 151 144 99 111 170 142 134 130 131 125 113 99 96 97 99 103 112 111 103 104 101 97 98 98 94 88 86 87 88 90 89 89 89 89 88 88 87 85 84 82 80 77 75 71 68 66 64 60 57 54 52 44 49 42 36 29 32 30 48 49 50 58 56 54 54 54 51 52 58 57 54 54 54 51
65 47 65 42 29 23 55 32 86 109 157 176 163 130 116 152 157 139 137 131 118 112 106 98 96 98 102 109 109 108 109 108 106 101 100 97 96 94 90 92 92 92 92 92 91 91 89 87 86 85 82 79 75 71 68 67 64 62 58 56 51 41 47 42 40 36 30 27 25 56 47 51 57 58 58 57 57 54 52 54 56 56 50 51 50
57 48 44 41 25 10 47 55 76 70 45 174 162 146 138 134 139 144 139 128 123 113 106 104 103 102 110 112 116 115 114 114 109 106 105 98 99 95 95 95 94 94 95 95 94 93 92 90 89 85 82 78 74 69 64 63 61 60 57 53 47 51 40 42 38 36 31 22 32 57 50 53 58 58 59 59 58 56 53 51 52 53 49 49 50
104 75 34 38 19 0 40 31 63 54 9 179 175 155 142 143 153 149 142 129 118 116 116 121 118 120 120 124 124 125 124 112 111 115 103 103 98 98 98 96 94 92 93 95 95 94 93 93 90 86 84 81 75 73 66 61 57 58 55 45 51 46 40 39 38 35 27 24 28 59 54 57 59 60 59 59 60 59 55 54 53 52 51 50 50
142 122 79 27 3 314 24 49 25 48 26 9 173 183 146 161 149 146 140 136 132 125 125 128 134 132 133 128 129 130 130 121 123 109 104 108 100 100 101 100 96 92 92 93 93 91 89 88 86 84 82 79 74 74 71 64 59 50 50 49 51 46 43 38 40 33 31 19 30 33 61 59 58 60 60 59 59 58 56 56 53 50 50 49 50
149 160 142 231 232 305 343 54 0 31 40 32 211 188 175 157 154 148 147 147 147 137 136 137 141 134 129 134 130 129 132 129 111 105 109 106 101 92 96 94 91 87 87 82 75 80 83 77 78 79 75 67 74 73 72 68 64 57 52 50 51 44 43 39 38 34 29 23 26 23 51 61 60 60 60 58 56 57 57 56 57 54 51 50 50
163 171 157 173 230 313 286 119 336 63 45 319 0 206 175 165 156 151 149 144 153 142 142 147 145 138 136 142 139 134 136 129 130 119 114 110 112 115 107 102 100 95 95 88 90 85 83 82 77 68 71 70 70 66 68 71 69 64 57 52 52 48 47 41 38 37 30 27 24 22 36 61 61 59 60 59 58 56 57 57 56 54 52 51 52
239 174 128 181 175 262 294 342 33 23 343 179 284 284 205 170 160 151 153 153 159 151 148 151 143 146 155 155 145 135 130 141 143 132 132 124 127 123 115 117 108 105 105 100 96 92 87 87 84 80 75 72 71 69 65 69 73 67 62 54 50 49 48 43 39 38 32 29 23 20 33 48 58 58 56 60 59 59 58 56 55 55 55 55 54
180 139 334 326 323 338 357 37 32 31 275 280 255 220 235 163 157 155 156 159 163 157 163 152 150 159 158 162 149 153 147 143 144 148 142 136 130 129 123 119 115 109 109 110 102 93 91 87 85 86 83 78 73 71 70 68 69 71 65 56 52 53 50 45 42 40 35 33 25 24 31 44 49 58 57 56 57 57 56 55 55 56 54 52 52
176 168 86 320 326 340 347 350 7 327 284 264 226 233 211 189 156 157 154 161 162 167 160 157 154 160 163 165 161 158 157 146 140 138 133 124 124 119 122 120 113 109 109 109 110 101 95 93 94 89 84 76 73 69 70 69 65 66 67 59 53 53 51 49 48 41 39 35 33 26 32 46 49 56 56 55 51 53 56 56 55 55 53 52 51
194 250 331 350 340 320 331 329 325 299 280 245 220 195 178 202 155 160 155 157 166 170 161 159 155 165 166 159 155 151 138 135 131 129 119 114 107 106 114 116 117 118 118 104 104 105 96 97 90 87 83 82 77 74 71 66 67 64 65 61 56 54 50 51 47 44 41 42 36 28 34 36 53 56 54 56 56 54 53 54 55 54 54 55 53
194 174 198 228 300 316 285 310 301 270 268 235 214 167 165 153 128 93 152 156 164 164 160 167 153 161 169 167 166 155 152 143 136 136 134 133 127 114 104 114 115 118 111 108 105 106 108 97 91 87 85 84 79 75 80 72 66 64 62 64 56 55 52 51 46 45 47 41 38 34 30 36 39 52 58 56 57 56 52 50 51 50 51 52 49
166 190 180 199 300 319 271 252 258 262 264 229 198 152 148 156 139 116 101 173 155 149 157 145 143 146 178 157 158 151 153 149 145 141 134 131 127 122 119 117 108 107 110 105 99 101 98 99 100 98 95 89 84 75 80 79 71 65 60 61 59 58 54 51 51 46 45 42 41 38 32 33 36 38 48 55 56 56 54 51 50 51 50 49 50
178 191 189 162 224 243 253 250 243 239 233 222 177 144 133 129 136 133 133 240 142 139 139 139 132 134 149 133 143 145 140 149 147 139 136 134 131 130 134 127 118 116 110 109 103 101 99 97 90 89 92 96 96 79 75 80 72 68 63 63 58 59 54 53 53 50 49 44 42 38 39 31 34 36 36 42 49 51 50 51 51 50 50 49 48
189 179 168 155 209 220 243 226 230 219 220 191 169 142 116 144 131 122 122 137 123 128 132 133 134 132 120 132 140 141 135 139 135 139 144 140 134 129 125 119 125 123 114 110 107 107 103 101 96 96 92 97 96 89 79 75 74 68 65 59 63 60 57 58 57 53 49 47 44 42 41 36 33 32 32 35 41 45 48 49 50 50 49 50 48
175 179 158 200 162 221 211 220 193 172 164 142 142 140 118 127 113 104 116 128 126 107 107 117 123 132 132 129 119 122 127 133 127 113 130 133 128 120 120 116 119 121 120 122 116 117 112 108 109 101 100 98 96 96 88 81 77 73 70 65 66 63 63 60 55 54 53 51 48 46 43 42 40 39 28 30 35 42 44 46 48 48 48 47 47
155 165 201 198 171 166 180 139 102 101 102 94 98 135 111 117 113 112 105 115 120 106 110 109 101 121 127 120 123 125 116 123 132 131 119 121 128 125 111 118 120 119 113 113 116 113 110 112 117 108 100 95 93 85 87 88 85 76 69 68 67 65 63 66 61 56 54 53 51 46 43 41 39 36 29 33 26 35 41 43 45 45 45 45 44
180 189 197 170 154 129 141 139 108 114 103 95 85 93 94 77 81 117 112 87 107 107 97 92 98 77 113 114 123 115 118 124 128 128 123 123 127 111 112 115 115 114 110 115 119 114 108 105 109 121 114 107 102 92 89 91 85 80 70 67 67 63 70 65 61 61 53 58 53 49 44 41 38 36 32 35 33 29 37 40 42 43 42 43 44
169 184 188 162 144 121 121 138 129 130 116 102 89 81 89 94 77 90 103 93 63 93 97 87 95 94 105 109 117 115 123 124 123 121 117 120 114 108 114 110 109 111 118 114 106 119 120 114 109 101 116 121 108 103 93 91 87 81 75 71 60 64 61 58 59 64 58 59 54 50 49 46 45 41 42 39 37 34 33 37 40 40 39 40 41
175 179 179 176 157 145 123 122 120 117 115 108 103 94 91 98 88 91 82 80 65 65 85 92 94 101 97 104 87 110 114 112 109 108 109 109 110 111 110 110 116 112 111 116 105 103 105 119 113 105 110 118 112 109 104 96 92 86 74 65 58 58 57 56 61 55 56 58 56 50 49 47 44 41 40 41 40 38 36 35 35 35 34 36 38
173 172 170 157 139 134 119 122 130 129 117 109 102 100 98 90 82 74 81 73 58 57 79 69 97 102 91 93 113 122 116 110 116 118 119 125 116 113 115 121 121 120 116 116 113 116 111 108 117 109 69 70 107 103 110 107 94 81 72 61 62 58 57 56 53 55 53 52 57 56 52 45 47 39 38 38 36 36 33 31 27 27 27 31 34
173 170 165 157 151 145 136 135 138 134 129 125 123 110 107 112 113 105 83 73 64 67 64 68 70 84 83 94 108 127 123 118 127 122 120 123 124 129 126 132 135 136 131 131 138 138 132 118 110 114 107 89 77 104 115 108 88 79 76 68 58 59 54 53 57 54 54 50 53 51 56 51 51 46 41 39 40 36 37 33 33 29 27 28 33
175 171 165 169 166 157 158 158 153 151 152 147 144 142 130 114 105 118 119 100 96 79 65 59 70 70 66 82 68 104 119 117 121 117 116 118 111 114 111 114 130 129 130 132 129 120 113 115 113 103 117 114 102 111 100 106 110 82 71 69 67 53 60 58 61 57 54 54 54 60 53 58 52 51 42 46 44 41 40 37 35 34 30 26 28
190 182 176 178 172 169 171 161 159 164 169 166 152 157 154 159 156 143 126 114 119 115 109 75 76 63 54 63 86 100 115 112 116 114 98 117 122 123 131 136 133 113 97 107 112 117 122 122 125 107 54 114 121 159 133 58 78 131 132 107 74 71 60 53 58 56 58 53 54 57 51 53 52 54 53 55 51 45 43 39 39 39 35 34 31
186 186 178 176 175 176 173 164 165 168 165 164 153 149 115 88 121 129 132 105 44 48 83 96 82 84 69 60 54 81 124 103 103 113 121 119 119 127 128 123 122 130 125 124 126 129 136 138 146 132 126 44 89 41 12 327 113 100 87 115 138 113 81 73 70 52 41 53 53 60 54 57 53 54 62 62 56 50 44 40 44 41 38 35 34
185 187 183 182 178 180 174 169 168 163 161 151 118 90 89 85 89 94 81 82 125 102 84 86 89 87 72 54 43 49 113 104 95 103 101 98 111 125 127 129 131 150 137 136 140 139 143 140 132 128 125 132 139 83 19 344 153 148 151 15 140 133 124 156 82 43 34 78 55 65 62 61 53 52 55 56 51 52 47 44 47 46 42 41 37
191 191 187 184 179 181 177 172 169 166 158 137 131 127 111 90 98 85 91 93 78 95 101 71 65 91 97 68 52 29 149 97 92 92 105 106 113 128 128 127 129 139 142 133 143 145 139 133 139 142 161 141 136 128 50 23 40 342 139 137 115 201 182 123 149 90 14 56 59 58 73 60 56 49 53 61 61 58 56 53 55 51 46 42 36
192 191 187 175 175 175 170 168 166 161 141 144 144 143 141 140 136 134 135 130 133 149 158 158 166 158 131 113 74 45 112 91 90 94 95 113 120 126 124 126 127 132 135 122 118 119 131 140 152 146 121 50 128 122 111 46 53 47 29 4 0 9 147 176 183 145 185 128 320 93 63 66 71 66 60 66 64 65 58 61 54 54 47 40 37
192 182 181 180 178 171 173 170 164 153 151 154 156 153 147 163 165 164 161 163 161 178 97 110 116 102 102 98 98 79 69 98 92 85 93 96 103 113 114 114 117 116 120 125 128 128 128 127 137 130 122 127 138 113 134 140 114 52 40 56 64 41 84 140 180 112 159 169 282 56 60 37 75 70 58 58 58 69 61 62 58 55 47 40 35
174 174 182 177 182 179 175 176 164 156 160 163 169 173 156 169 175 172 165 166 168 162 150 125 109 123 105 102 115 101 80 76 97 97 105 111 120 114 120 123 120 121 129 129 127 130 116 104 106 111 122 129 141 136 144 168 141 120 16 64 69 67 60 58 56 167 135 156 160 166 153 36 18 47 47 40 48 56 69 63 57 52 52 43 35
178 185 184 178 174 172 170 166 160 156 162 169 172 177 177 172 172 160 148 68 88 108 109 112 122 134 109 109 103 108 92 80 77 103 112 121 125 131 132 127 123 127 127 123 124 134 136 135 136 134 133 117 120 127 134 158 149 147 144 84 78 76 72 65 81 60 120 143 162 173 59 7 50 35 32 55 58 62 73 69 65 57 54 45 36
183 178 181 177 174 169 172 172 169 164 166 171 173 172 172 169 157 158 143 132 120 112 114 124 130 137 116 116 126 123 112 104 96 99 115 120 128 139 134 130 131 134 136 133 132 132 135 128 132 131 131 117 124 137 138 143 138 141 149 150 133 133 73 62 47 76 55 31 147 165 186 156 159 133 24 33 54 95 93 85 80 66 51 48 35
172 177 176 179 178 173 176 182 175 161 166 169 169 170 170 168 160 158 153 146 150 144 131 133 133 133 133 134 154 136 124 116 123 120 117 134 135 141 137 133 134 135 136 141 147 140 138 131 132 129 132 134 141 132 121 117 125 126 141 160 145 149 151 160 170 155 138 142 128 179 214 208 211 184 150 18 90 108 108 83 74 61 50 40 33